Regional Weather Roundup
Issued by NWS Charleston, SC

Current Version | Previous Version | Text Only | Print | Product List | Glossary Off
Versions: 1 2 3 4 5 6 7 8 9 10 11 12 13 14 15 16 17 18 19 20 21 22 23 24 25 26 27 28 29 30 31 32 33 34 35 36 37 38 39 40 41 42 43 44 45 46 47 48 49 50

000
ASUS42 KCHS 190027
RWRCHS

REGIONAL WEATHER ROUNDUP
NATIONAL WEATHER SERVICE CHARLESTON SC
700 PM EST WED JAN 18 2017

NOTE: "FAIR" INDICATES FEW OR NO CLOUDS BELOW 12,000 FEET WITH NO
SIGNIFICANT WEATHER AND/OR OBSTRUCTIONS TO VISIBILITY.

NOT ALL STATIONS ARE QUALITY CONTROLLED. USE DATA WITH CAUTION...
ESPECIALLY DEWPOINT OBSERVATIONS.

SCZ027-030-031-034>040-042>050-190100-
...SOUTHEAST SOUTH CAROLINA...

CITY           SKY/WX    TMP DP  RH WIND       PRES   REMARKS
N CHARLESTON   CLEAR     71  58  63 W6        30.00R
6HR MIN TEMP:  71; 6HR MAX TEMP:  79;

WATERFRONT PRK   N/A     72  61  68 VRB2      29.99R
MOUNT PLEASANT FAIR      72  61  68 CALM      30.00S
JOHNS ISLAND   FAIR      70  61  73 CALM      30.01S
PINOPOLIS        N/A     70  63  78 SW6       29.90R
MONCKS CORNER  FAIR      64  57  77 CALM      30.01R
SUMMERVILLE    FAIR      68  61  77 W5        30.02R
BEAUFORT MCAS  CLEAR     70  59  68 W8        30.02S
6HR MIN TEMP:  70; 6HR MAX TEMP:  79;

BEAUFORT ARPT  FAIR      70  59  68 W6        30.03R
HILTON HEAD IS CLEAR     70  61  73 SW7       30.04S
WALTERBORO     CLEAR     68  59  73 W5        30.03R
ALLENDALE      FAIR      70  61  73 CALM      30.02R

...SOUTHERN MIDLANDS AND PEE DEE...

CITY           SKY/WX    TMP DP  RH WIND       PRES   REMARKS
GEORGETOWN     FAIR      61  55  82 CALM      30.01R
KINGSTREE      FAIR      61  52  72 CALM      30.01R
ORANGEBURG     CLEAR     69  50  50 W3        30.01R
6HR MIN TEMP:  69; 6HR MAX TEMP:  79;

BARNWELL       FAIR      70  63  78 SW6       30.02S
AIKEN          FAIR      61  50  67 CALM      30.06S
MANNING        FAIR      61  43  51 CALM      30.01R
COLUMBIA       PTCLDY    68  46  45 W6        30.00R
6HR MIN TEMP:  66; 6HR MAX TEMP:  80;

SUMTER         CLEAR     67  49  53 CALM      29.98R
6HR MIN TEMP:  63; 6HR MAX TEMP:  79;

FLORENCE       CLEAR     65  43  44 NW5       30.00R
6HR MIN TEMP:  64; 6HR MAX TEMP:  79;

MYRTLE BEACH   CLEAR     66  54  63 NW7       30.01R
N MYRTLE BEACH CLEAR     61  54  77 CALM      29.99R
6HR MIN TEMP:  61; 6HR MAX TEMP:  78;


$$

GAZ063-065-086>088-099>101-113>116-118-119-134>141-150-190100-
...SOUTHEAST GEORGIA...

CITY           SKY/WX    TMP DP  RH WIND       PRES   REMARKS
SAVANNAH ARPT  PTCLDY    70  57  63 SW8       30.05S
6HR MIN TEMP:  70; 6HR MAX TEMP:  78;

HUNTER AAF     CLEAR     69  61  75 SW6       30.03S
6HR MIN TEMP:  69; 6HR MAX TEMP:  77;

FORT STEWART   CLEAR     65  59  80 CALM      30.04F
6HR MIN TEMP:  65; 6HR MAX TEMP:  76;

STATESBORO     CLEAR     65  62  89 CALM      30.05S
SYLVANIA       CLEAR    N/A N/A N/A W3        30.06R
CLAXTON        CLOUDY   N/A N/A N/A CALM      30.06S

...CSRA...CENTRAL AND FAR SOUTHEAST GEORGIA...

CITY           SKY/WX    TMP DP  RH WIND       PRES   REMARKS
THOMSON        CLEAR     67  56  67 CALM      30.08S
AUGUSTA-BUSH   CLEAR     71  60  68 SW7       30.02R
6HR MIN TEMP:  71; 6HR MAX TEMP:  81;

AUGUSTA-DANIEL CLEAR     73  51  46 VRB5      30.03R
SWAINSBORO     FAIR      68  59  73 MISG      30.08R
VIDALIA        CLEAR     68  63  83 CALM      30.07S
EASTMAN        FAIR      70  53  54 CALM      30.11R
HAZLEHURST     FAIR      66  62  85 SW3       30.07S
ALMA           CLEAR     66  60  81 SW3       30.09R
6HR MIN TEMP:  66; 6HR MAX TEMP:  77;

WAYCROSS       CLEAR     69  65  89 W3        30.10S
JESUP          FAIR      64  59  82 CALM      30.09R
BAXLEY         FAIR      68  63  83 CALM      30.08S
BRUNSWICK      CLEAR     68  61  77 W6        30.09R
SAINT SIMONS   PTCLDY    69  58  67 SW6       30.08S
6HR MIN TEMP:  69; 6HR MAX TEMP:  77;


$$

SCZ027-028-034-036>038-045-046-048>050-GAZ119-141-190100-
...LAKE AND SUPPLEMENTAL COASTAL OBSERVATIONS...

STATION/POSITION TIME  TEMP    WIND        PRES    WAVE   SWELL
                       AIR SEA DIR/SP/G            HT/PER HT/PER/DIR
                 (UTC) (F)     (DEG/KT/KT) (MB)    (FT/S) (FT/S/D)
WINYAH BAY       2245   72     260/  3     1015.0
LAKE MURRAY      2320   69     280/  5/  5 1015.2
ACE BASIN NERRS  2245   72     250/  2     1016.0
FORT PULASKI     2354   69 57  250/  5/  7 1017.5F
SAPELO ISLAND    2300   68     240/  8     1018.0

$$

ANZ835-935-AMZ111-154-330-350-352-354-370-450-454-472-190100-
...C-MAN AND BUOY OBSERVATIONS...

STATION/POSITION TIME  TEMP    WIND        PRES    WAVE   SWELL
                       AIR SEA DIR/SP/G            HT/PER HT/PER/DIR
                 (UTC) (F)     (DEG/KT/KT) (MB)    (FT/S) (FT/S/D)
BUOY 41004       2350   70 72  250/ 19/ 23 1015.2R   4/ 6   2/160/10
BUOY 41008       2350   63 60  250/  6/  8 1018.0R   1/ 9   2/ 70/ 9
FOLLY BEACH CMAN 0000   60     230/  5/  6 1016.7R
CAPERS NEARSHORE 2308   58 55  240/ 10/ 14 1015.6R
FRIPP NEARSHORE  2308   62 58  240/ 10/ 12 1016.5S


STATION/POSITION TIME  TEMP    WIND        PRES    WAVE   SWELL
                       AIR SEA DIR/SP/G            HT/PER HT/PER/DIR
                 (UTC) (F)     (DEG/KT/KT) (MB)    (FT/S) (FT/S/D)
5E ST. MARYS GA  0000      63                N/A     1/ 9
FRYING PAN BUOY  0000   69 72  290/ 10/ 14 1015.4
BUOY 41025       2350   56 72   20/ 25/ 31 1014.6R   5/ 6
CAPE LOOKOUT NC  0000   53      10/ 13/ 17 1016.3R
BUOY 41002       2350   73 72  260/ 23/ 29 1012.1F   8/ 7
BUOY 41010       NOT AVBL
ST AUGUSTINE FL  0000   73 63  280/  3/  3 1020.4R


$$



USA.gov is the U.S. government's official web portal to all federal, state and local government web resources and services.